Time,TemperatureF,DewpointF,PressureIn,WindDirection,WindDirectionDegrees,WindSpeedMPH,WindSpeedGustMPH,Humidity,HourlyPrecipIn,Conditions,Clouds,dailyrainin,SoftwareType,DateUTC
2013-03-30 00:02:00,43.0,32.0,30.00,NW,319,3.0,7.0,65,0.00,,,0.00,,2013-03-30 04:02:00,
2013-03-30 00:12:00,43.0,32.0,30.00,NW,319,3.0,7.0,65,0.00,,,0.00,,2013-03-30 04:12:00,
2013-03-30 00:23:00,43.0,32.0,30.00,NNW,341,1.0,9.0,66,0.00,,,0.00,,2013-03-30 04:23:00,
2013-03-30 00:33:00,43.0,33.0,30.00,WNW,300,4.0,12.0,67,0.00,,,0.00,,2013-03-30 04:33:00,
2013-03-30 00:43:00,43.0,33.0,30.00,WNW,300,4.0,12.0,67,0.00,,,0.00,,2013-03-30 04:43:00,
2013-03-30 00:52:00,43.0,32.0,30.00,West,263,7.0,11.0,66,0.00,,,0.00,,2013-03-30 04:52:00,
2013-03-30 01:02:00,43.0,33.0,30.00,North,9,3.0,10.0,67,0.00,,,0.00,,2013-03-30 05:02:00,
2013-03-30 01:12:00,43.0,33.0,30.00,North,9,3.0,10.0,67,0.00,,,0.00,,2013-03-30 05:12:00,
2013-03-30 01:22:00,43.0,32.0,30.00,NW,306,3.0,12.0,66,0.00,,,0.00,,2013-03-30 05:22:00,
2013-03-30 01:32:00,43.0,33.0,30.00,NW,306,2.0,12.0,67,0.00,,,0.00,,2013-03-30 05:32:00,
2013-03-30 01:42:00,43.0,33.0,30.00,NW,306,2.0,12.0,67,0.00,,,0.00,,2013-03-30 05:42:00,
2013-03-30 01:52:00,42.0,32.0,30.00,WNW,296,3.0,12.0,67,0.00,,,0.00,,2013-03-30 05:52:00,
2013-03-30 02:02:00,42.0,32.0,30.00,NNW,339,3.0,10.0,68,0.00,,,0.00,,2013-03-30 06:02:00,
2013-03-30 02:12:00,42.0,32.0,30.00,NNW,339,3.0,10.0,68,0.00,,,0.00,,2013-03-30 06:12:00,
2013-03-30 02:23:00,42.0,32.0,30.00,NW,319,2.0,9.0,68,0.00,,,0.00,,2013-03-30 06:23:00,
2013-03-30 02:32:00,42.0,32.0,30.00,NNW,342,1.0,6.0,68,0.00,,,0.00,,2013-03-30 06:32:00,
2013-03-30 02:42:00,42.0,32.0,30.00,NNW,342,1.0,6.0,68,0.00,,,0.00,,2013-03-30 06:42:00,
2013-03-30 02:52:00,42.0,32.0,30.00,North,355,2.0,8.0,68,0.00,,,0.00,,2013-03-30 06:52:00,
2013-03-30 03:02:00,42.0,33.0,30.00,West,273,2.0,11.0,69,0.00,,,0.00,,2013-03-30 07:02:00,
2013-03-30 03:12:00,42.0,33.0,30.00,West,273,2.0,11.0,69,0.00,,,0.00,,2013-03-30 07:12:00,
2013-03-30 03:22:00,41.0,32.0,30.00,NW,323,1.0,7.0,69,0.00,,,0.00,,2013-03-30 07:22:00,
2013-03-30 03:32:00,41.0,32.0,30.00,WNW,300,3.0,6.0,70,0.00,,,0.00,,2013-03-30 07:32:00,
2013-03-30 03:42:00,41.0,32.0,30.00,WNW,300,3.0,6.0,70,0.00,,,0.00,,2013-03-30 07:42:00,
2013-03-30 03:52:00,41.0,32.0,30.00,NW,315,3.0,7.0,70,0.00,,,0.00,,2013-03-30 07:52:00,
2013-03-30 04:02:00,41.0,32.0,30.00,NW,306,4.0,8.0,70,0.00,,,0.00,,2013-03-30 08:02:00,
2013-03-30 04:12:00,41.0,32.0,30.00,NW,306,4.0,8.0,70,0.00,,,0.00,,2013-03-30 08:12:00,
2013-03-30 04:22:00,41.0,32.0,30.00,NW,316,5.0,10.0,70,0.00,,,0.00,,2013-03-30 08:22:00,
2013-03-30 04:32:00,41.0,32.0,30.00,NNW,327,4.0,11.0,70,0.00,,,0.00,,2013-03-30 08:32:00,
2013-03-30 04:42:00,41.0,32.0,30.00,NNW,327,4.0,11.0,70,0.00,,,0.00,,2013-03-30 08:42:00,
2013-03-30 04:52:00,41.0,33.0,30.00,WNW,284,2.0,7.0,73,0.00,,,0.00,,2013-03-30 08:52:00,
2013-03-30 05:02:00,41.0,32.0,30.00,WNW,287,6.0,10.0,70,0.00,,,0.00,,2013-03-30 09:02:00,
2013-03-30 05:12:00,41.0,32.0,30.00,WNW,294,3.0,10.0,71,0.00,,,0.00,,2013-03-30 09:12:00,
2013-03-30 05:22:00,41.0,32.0,30.00,WNW,294,3.0,10.0,71,0.00,,,0.00,,2013-03-30 09:22:00,
2013-03-30 05:33:00,40.0,31.0,30.00,West,279,4.0,11.0,70,0.00,,,0.00,,2013-03-30 09:33:00,
2013-03-30 05:43:00,40.0,31.0,30.00,West,279,4.0,11.0,70,0.00,,,0.00,,2013-03-30 09:43:00,
2013-03-30 05:53:00,40.0,31.0,30.00,West,265,5.0,11.0,70,0.00,,,0.00,,2013-03-30 09:53:00,
2013-03-30 06:03:00,39.0,30.0,30.00,NW,326,3.0,7.0,71,0.00,,,0.00,,2013-03-30 10:03:00,
2013-03-30 06:13:00,39.0,30.0,30.00,NW,326,3.0,7.0,71,0.00,,,0.00,,2013-03-30 10:13:00,
2013-03-30 06:23:00,38.0,30.0,30.01,WNW,296,3.0,6.0,72,0.00,,,0.00,,2013-03-30 10:23:00,
2013-03-30 06:33:00,37.0,29.0,30.01,West,273,2.0,6.0,74,0.00,,,0.00,,2013-03-30 10:33:00,
2013-03-30 06:42:00,37.0,29.0,30.01,West,273,2.0,6.0,74,0.00,,,0.00,,2013-03-30 10:42:00,
2013-03-30 06:52:00,36.0,29.0,30.01,NW,305,3.0,7.0,76,0.00,,,0.00,,2013-03-30 10:52:00,
2013-03-30 07:04:00,35.0,29.0,30.01,NNW,329,4.0,7.0,77,0.00,,,0.00,,2013-03-30 11:04:00,
2013-03-30 07:12:00,35.0,29.0,30.01,NNW,329,4.0,7.0,77,0.00,,,0.00,,2013-03-30 11:12:00,
2013-03-30 07:22:00,35.0,29.0,30.01,NW,317,3.0,6.0,78,0.00,,,0.00,,2013-03-30 11:22:00,
2013-03-30 07:33:00,34.0,28.0,30.02,WNW,285,3.0,5.0,79,0.00,,,0.00,,2013-03-30 11:33:00,
2013-03-30 07:42:00,34.0,28.0,30.02,WNW,285,3.0,5.0,79,0.00,,,0.00,,2013-03-30 11:42:00,
2013-03-30 07:52:00,35.0,29.0,30.02,NW,310,0.0,9.0,79,0.00,,,0.00,,2013-03-30 11:52:00,
2013-03-30 08:02:00,38.0,31.0,30.03,West,272,3.0,12.0,75,0.00,,,0.00,,2013-03-30 12:02:00,
2013-03-30 08:12:00,38.0,31.0,30.03,West,272,3.0,12.0,75,0.00,,,0.00,,2013-03-30 12:12:00,
2013-03-30 08:22:00,39.0,31.0,30.03,West,273,4.0,9.0,72,0.00,,,0.00,,2013-03-30 12:22:00,
2013-03-30 08:33:00,42.0,31.0,30.03,North,355,3.0,12.0,66,0.00,,,0.00,,2013-03-30 12:33:00,
2013-03-30 08:42:00,42.0,31.0,30.03,North,355,3.0,12.0,66,0.00,,,0.00,,2013-03-30 12:42:00,
2013-03-30 08:52:00,44.0,32.0,30.03,WNW,298,7.0,11.0,62,0.00,,,0.00,,2013-03-30 12:52:00,
2013-03-30 09:02:00,45.0,31.0,30.03,North,360,4.0,13.0,58,0.00,,,0.00,,2013-03-30 13:02:00,
2013-03-30 09:12:00,45.0,31.0,30.03,North,360,4.0,13.0,58,0.00,,,0.00,,2013-03-30 13:12:00,
2013-03-30 09:22:00,46.0,31.0,30.03,NNE,12,8.0,15.0,56,0.00,,,0.00,,2013-03-30 13:22:00,
2013-03-30 09:32:00,47.0,31.0,30.03,NNW,340,5.0,16.0,53,0.00,,,0.00,,2013-03-30 13:32:00,
2013-03-30 09:42:00,47.0,31.0,30.03,NNW,340,5.0,16.0,53,0.00,,,0.00,,2013-03-30 13:42:00,
2013-03-30 09:52:00,47.0,30.0,30.03,NNW,327,4.0,13.0,52,0.00,,,0.00,,2013-03-30 13:52:00,
2013-03-30 10:03:00,49.0,30.0,30.02,NNE,26,4.0,12.0,48,0.00,,,0.00,,2013-03-30 14:03:00,
2013-03-30 10:12:00,49.0,30.0,30.02,NNE,26,4.0,12.0,48,0.00,,,0.00,,2013-03-30 14:12:00,
2013-03-30 10:23:00,50.0,30.0,30.03,WNW,296,4.0,15.0,46,0.00,,,0.00,,2013-03-30 14:23:00,
2013-03-30 10:32:00,50.0,30.0,30.02,NNW,340,6.0,15.0,46,0.00,,,0.00,,2013-03-30 14:32:00,
2013-03-30 10:42:00,50.0,30.0,30.02,NNW,340,6.0,15.0,46,0.00,,,0.00,,2013-03-30 14:42:00,
2013-03-30 10:52:00,51.0,29.0,30.02,NW,317,3.0,17.0,42,0.00,,,0.00,,2013-03-30 14:52:00,
2013-03-30 11:03:00,51.0,28.0,30.02,NW,309,7.0,16.0,40,0.00,,,0.00,,2013-03-30 15:03:00,
2013-03-30 11:12:00,51.0,28.0,30.02,NW,309,7.0,16.0,40,0.00,,,0.00,,2013-03-30 15:12:00,
2013-03-30 11:22:00,52.0,27.0,30.01,North,360,2.0,22.0,38,0.00,,,0.00,,2013-03-30 15:22:00,
2013-03-30 11:34:00,53.0,27.0,30.01,North,11,8.0,20.0,37,0.00,,,0.00,,2013-03-30 15:34:00,
2013-03-30 11:43:00,53.0,27.0,30.01,North,11,8.0,20.0,37,0.00,,,0.00,,2013-03-30 15:43:00,
2013-03-30 11:52:00,53.0,28.0,30.01,NW,310,6.0,16.0,38,0.00,,,0.00,,2013-03-30 15:52:00,
2013-03-30 12:03:00,53.0,25.0,30.00,North,5,4.0,14.0,34,0.00,,,0.00,,2013-03-30 16:03:00,
2013-03-30 12:13:00,54.0,24.0,30.00,NNW,330,7.0,19.0,31,0.00,,,0.00,,2013-03-30 16:13:00,
2013-03-30 12:23:00,54.0,24.0,30.00,NNW,330,7.0,19.0,31,0.00,,,0.00,,2013-03-30 16:23:00,
2013-03-30 12:33:00,54.0,25.0,30.00,NNW,331,7.0,13.0,32,0.00,,,0.00,,2013-03-30 16:33:00,
2013-03-30 12:43:00,54.0,25.0,30.00,NNW,331,7.0,13.0,32,0.00,,,0.00,,2013-03-30 16:43:00,
2013-03-30 12:52:00,54.0,25.0,29.99,NNW,329,1.0,15.0,32,0.00,,,0.00,,2013-03-30 16:52:00,
2013-03-30 13:02:00,55.0,26.0,29.99,North,9,3.0,14.0,33,0.00,,,0.00,,2013-03-30 17:02:00,
2013-03-30 13:13:00,55.0,26.0,29.99,North,9,3.0,14.0,33,0.00,,,0.00,,2013-03-30 17:13:00,
2013-03-30 13:23:00,55.0,25.0,29.98,North,355,4.0,9.0,31,0.00,,,0.00,,2013-03-30 17:23:00,
2013-03-30 13:32:00,55.0,26.0,29.98,NW,318,11.0,18.0,32,0.00,,,0.00,,2013-03-30 17:32:00,
2013-03-30 13:42:00,55.0,26.0,29.98,NW,318,11.0,18.0,32,0.00,,,0.00,,2013-03-30 17:42:00,
2013-03-30 13:52:00,55.0,24.0,29.98,North,349,4.0,16.0,30,0.00,,,0.00,,2013-03-30 17:52:00,
2013-03-30 14:03:00,55.0,25.0,29.98,NNE,25,4.0,15.0,31,0.00,,,0.00,,2013-03-30 18:03:00,
2013-03-30 14:12:00,55.0,23.0,29.98,NNW,332,9.0,17.0,28,0.00,,,0.00,,2013-03-30 18:12:00,
2013-03-30 14:22:00,55.0,23.0,29.98,NNW,332,9.0,17.0,28,0.00,,,0.00,,2013-03-30 18:22:00,
2013-03-30 14:33:00,56.0,25.0,29.97,NW,316,6.0,14.0,30,0.00,,,0.00,,2013-03-30 18:33:00,
2013-03-30 14:42:00,56.0,25.0,29.97,NW,316,6.0,14.0,30,0.00,,,0.00,,2013-03-30 18:42:00,
2013-03-30 14:53:00,56.0,24.0,29.97,NNE,26,5.0,16.0,29,0.00,,,0.00,,2013-03-30 18:53:00,
2013-03-30 15:03:00,56.0,23.0,29.96,NNW,331,9.0,12.0,27,0.00,,,0.00,,2013-03-30 19:03:00,
2013-03-30 15:13:00,56.0,23.0,29.96,NNW,331,9.0,12.0,27,0.00,,,0.00,,2013-03-30 19:13:00,
2013-03-30 15:22:00,56.0,23.0,29.96,SW,229,3.0,13.0,28,0.00,,,0.00,,2013-03-30 19:22:00,
2013-03-30 15:32:00,57.0,24.0,29.97,NNE,26,11.0,16.0,28,0.00,,,0.00,,2013-03-30 19:32:00,
2013-03-30 15:42:00,57.0,24.0,29.97,NNE,26,11.0,16.0,28,0.00,,,0.00,,2013-03-30 19:42:00,
2013-03-30 15:52:00,56.0,23.0,29.97,NW,319,6.0,14.0,28,0.00,,,0.00,,2013-03-30 19:52:00,
2013-03-30 16:02:00,56.0,24.0,29.96,NW,311,8.0,14.0,29,0.00,,,0.00,,2013-03-30 20:02:00,
2013-03-30 16:12:00,56.0,24.0,29.96,NW,311,8.0,14.0,29,0.00,,,0.00,,2013-03-30 20:12:00,
2013-03-30 16:22:00,56.0,23.0,29.96,NNE,17,6.0,14.0,28,0.00,,,0.00,,2013-03-30 20:22:00,
2013-03-30 16:33:00,56.0,24.0,29.96,North,5,6.0,15.0,29,0.00,,,0.00,,2013-03-30 20:33:00,
2013-03-30 16:42:00,56.0,24.0,29.96,North,5,6.0,15.0,29,0.00,,,0.00,,2013-03-30 20:42:00,
2013-03-30 16:52:00,56.0,24.0,29.96,WNW,282,3.0,11.0,29,0.00,,,0.00,,2013-03-30 20:52:00,
2013-03-30 17:03:00,56.0,23.0,29.96,WNW,282,5.0,15.0,28,0.00,,,0.00,,2013-03-30 21:03:00,
2013-03-30 17:12:00,56.0,23.0,29.96,WNW,282,5.0,15.0,28,0.00,,,0.00,,2013-03-30 21:12:00,
2013-03-30 17:22:00,56.0,25.0,29.96,NW,306,4.0,15.0,30,0.00,,,0.00,,2013-03-30 21:22:00,
2013-03-30 17:34:00,54.0,23.0,29.96,NNW,330,3.0,15.0,30,0.00,,,0.00,,2013-03-30 21:34:00,
2013-03-30 17:43:00,54.0,23.0,29.96,NNW,330,3.0,15.0,30,0.00,,,0.00,,2013-03-30 21:43:00,
2013-03-30 17:52:00,54.0,23.0,29.96,WNW,298,6.0,12.0,30,0.00,,,0.00,,2013-03-30 21:52:00,
2013-03-30 18:03:00,54.0,24.0,29.96,NW,306,3.0,17.0,31,0.00,,,0.00,,2013-03-30 22:03:00,
2013-03-30 18:13:00,54.0,24.0,29.96,NW,306,3.0,17.0,31,0.00,,,0.00,,2013-03-30 22:13:00,
2013-03-30 18:23:00,54.0,24.0,29.97,North,350,5.0,9.0,31,0.00,,,0.00,,2013-03-30 22:23:00,
2013-03-30 18:33:00,52.0,24.0,29.97,NNW,330,6.0,12.0,33,0.00,,,0.00,,2013-03-30 22:33:00,
2013-03-30 18:43:00,52.0,24.0,29.97,NNW,330,6.0,12.0,33,0.00,,,0.00,,2013-03-30 22:43:00,
2013-03-30 18:53:00,52.0,23.0,29.97,North,5,3.0,13.0,32,0.00,,,0.00,,2013-03-30 22:53:00,
2013-03-30 19:02:00,51.0,24.0,29.98,NNW,329,2.0,6.0,34,0.00,,,0.00,,2013-03-30 23:02:00,
2013-03-30 19:12:00,51.0,24.0,29.98,NNW,329,2.0,6.0,34,0.00,,,0.00,,2013-03-30 23:12:00,
2013-03-30 19:22:00,50.0,24.0,29.98,NW,323,3.0,10.0,36,0.00,,,0.00,,2013-03-30 23:22:00,
2013-03-30 19:33:00,48.0,21.0,29.99,NW,325,1.0,6.0,34,0.00,,,0.00,,2013-03-30 23:33:00,
2013-03-30 19:42:00,48.0,21.0,29.99,NW,325,1.0,6.0,34,0.00,,,0.00,,2013-03-30 23:42:00,
2013-03-30 19:52:00,48.0,22.0,29.99,NNW,336,1.0,6.0,35,0.00,,,0.00,,2013-03-30 23:52:00,
2013-03-30 20:03:00,46.0,21.0,30.00,NNW,336,1.0,4.0,36,0.00,,,0.00,,2013-03-31 00:03:00,
2013-03-30 20:12:00,46.0,21.0,30.00,NNW,336,1.0,4.0,36,0.00,,,0.00,,2013-03-31 00:12:00,
2013-03-30 20:22:00,46.0,21.0,30.00,NW,326,2.0,4.0,37,0.00,,,0.00,,2013-03-31 00:22:00,
2013-03-30 20:32:00,45.0,22.0,30.01,WNW,294,3.0,5.0,39,0.00,,,0.00,,2013-03-31 00:32:00,
2013-03-30 20:42:00,45.0,22.0,30.01,WNW,294,3.0,5.0,39,0.00,,,0.00,,2013-03-31 00:42:00,
2013-03-30 20:52:00,44.0,21.0,30.02,WNW,298,2.0,5.0,40,0.00,,,0.00,,2013-03-31 00:52:00,
2013-03-30 21:02:00,42.0,25.0,30.03,NW,313,1.0,5.0,50,0.00,,,0.00,,2013-03-31 01:02:00,
2013-03-30 21:12:00,42.0,25.0,30.03,NW,313,1.0,5.0,50,0.00,,,0.00,,2013-03-31 01:12:00,
2013-03-30 21:22:00,41.0,22.0,30.03,NW,313,2.0,4.0,47,0.00,,,0.00,,2013-03-31 01:22:00,
2013-03-30 21:32:00,40.0,22.0,30.03,NNW,327,1.0,3.0,48,0.00,,,0.00,,2013-03-31 01:32:00,
2013-03-30 21:42:00,40.0,22.0,30.03,NNW,327,1.0,3.0,48,0.00,,,0.00,,2013-03-31 01:42:00,
2013-03-30 21:52:00,40.0,21.0,30.04,NNW,327,0.0,4.0,47,0.00,,,0.00,,2013-03-31 01:52:00,
2013-03-30 22:02:00,40.0,22.0,30.04,NNW,327,1.0,2.0,48,0.00,,,0.00,,2013-03-31 02:02:00,
2013-03-30 22:13:00,40.0,22.0,30.04,NNW,327,1.0,2.0,48,0.00,,,0.00,,2013-03-31 02:13:00,
2013-03-30 22:22:00,39.0,20.0,30.04,NNW,327,1.0,2.0,47,0.00,,,0.00,,2013-03-31 02:22:00,
2013-03-30 22:32:00,39.0,21.0,30.05,NNW,331,0.0,4.0,48,0.00,,,0.00,,2013-03-31 02:32:00,
2013-03-30 22:43:00,39.0,21.0,30.05,NNW,331,0.0,4.0,48,0.00,,,0.00,,2013-03-31 02:43:00,
2013-03-30 22:52:00,38.0,21.0,30.05,NNW,331,0.0,2.0,49,0.00,,,0.00,,2013-03-31 02:52:00,
2013-03-30 23:02:00,37.0,21.0,30.05,NNW,331,0.0,3.0,53,0.00,,,0.00,,2013-03-31 03:02:00,
2013-03-30 23:13:00,37.0,21.0,30.05,NNW,331,0.0,3.0,53,0.00,,,0.00,,2013-03-31 03:13:00,
2013-03-30 23:22:00,37.0,21.0,30.04,NNW,331,1.0,2.0,52,0.00,,,0.00,,2013-03-31 03:22:00,
2013-03-30 23:33:00,37.0,21.0,30.04,West,273,1.0,4.0,52,0.00,,,0.00,,2013-03-31 03:33:00,
2013-03-30 23:43:00,37.0,21.0,30.04,West,273,1.0,4.0,52,0.00,,,0.00,,2013-03-31 03:43:00,
2013-03-30 23:53:00,37.0,22.0,30.05,West,277,2.0,5.0,55,0.00,,,0.00,,2013-03-31 03:53:00,